{"data":{"norad_id":44334,"intl_designator":"2019-034B","name":"EUTELSAT 7C","alt_names":[],"object_type":"PAYLOAD","status":"ACTIVE","operator":null,"country":"EUTE","launch_date":"2019-06-20","launch_site_code":"FRGUI","launch_vehicle":null,"mission":null,"orbit_class":"UNKNOWN","rcs_meters":null,"size_class":null,"mass_kg":null,"dimensions":null,"purposes":["comms"],"wikipedia_slug":null,"has_3d_model":false,"image_url":null,"decayed_at":null,"tle_current":{"epoch":"2026-05-25T03:46:39.567360Z","epoch_age_seconds":57923,"freshness":"FRESH","line1":"1 44334U 19034B   26145.15740240  .00000046  00000+0  00000+0 0  9994","line2":"2 44334   0.0749 175.3796 0003166 229.3546 261.6817  1.00271032  6604","mean_motion":1.00271032,"eccentricity":0.0003166,"inclination_deg":0.0749,"raan_deg":175.3796,"arg_perigee_deg":229.3546,"mean_anomaly_deg":261.6817,"bstar":0,"rev_number":660,"period_min":1436.1076886094,"perigee_km":35773.456634775,"apogee_km":35800.155476718,"semimajor_km":42164.943055746,"source":"CELESTRAK","updated_at":"2026-05-25T13:38:14.086598Z"}}}